Weather History for KCKC - July, 2014

Change the Weather History Date:

Wednesday, July 23, 2014

  Actual Average Record
Temperature  
Mean Temperature 56 °F -  
Max Temperature 66 °F 71 °F 86 °F (2001)
Min Temperature 46 °F 51 °F 39 °F (2004)
Degree Days  
Heating Degree Days 9    
Growing Degree Days 6 (Base 50)    
Moisture  
Dew Point 49 °F    
Average Humidity 73    
Maximum Humidity 93    
Minimum Humidity 49    
Precipitation  
Precipitation 0.00 in - - ()
Sea Level Pressure  
Sea Level Pressure 30.24 in    
Wind  
Wind Speed 4 mph (NNW)    
Max Wind Speed 8 mph    
Max Gust Speed -    
Visibility 10 miles    
Events      
Averages and records for this station are not official NWS values.
T = Trace of Precipitation, MM = Missing Value Source: NWS Daily Summary

Daily Weather History Graph

Daily Weather History Graph

Search for Another Location

Airport or City:

Trip Planner

Search our weather history database for the weather conditions in past years. The results will help you decide how hot, cold, wet, or windy it might be!

Date:

Astronomy

Jul. 23, 2014 Rise Set
Actual Time 5:27 AM CDT 8:48 PM CDT
Civil Twilight 4:49 AM CDT 9:25 PM CDT
Nautical Twilight 3:59 AM CDT 10:15 PM CDT
Astronomical Twilight 2:54 AM CDT 11:19 PM CDT
Moon 2:48 AM CDT (7/23) 6:15 PM CDT (7/23)
Length of Visible Light 16h 36m
Length of Day
15h 20m
Waning Crescent, 9% of the Moon is Illuminated
Jul 23
Waning Crescent
Jul 26
New
Aug 3
First Quarter
Aug 10
Full
Aug 17
Last Quarter

Hourly Weather History & Observations

Time (CDT) Temp. Dew Point Humidity Pressure Visibility Wind Dir Wind Speed Gust Speed Precip Events Conditions
12:13 AM 55.4 °F 50.0 °F 82% 30.19 in 10.0 mi NNW 5.8 mph - N/A   Clear
12:33 AM 53.6 °F 50.0 °F 88% 30.19 in 10.0 mi NNW 5.8 mph - N/A   Clear
12:53 AM 55.4 °F 50.0 °F 82% 30.19 in 10.0 mi NNW 4.6 mph - N/A   Clear
1:33 AM 55.4 °F 50.0 °F 82% 30.20 in 10.0 mi NNW 3.5 mph - N/A   Overcast
1:53 AM 55.4 °F 50.0 °F 82% 30.20 in 10.0 mi NNW 4.6 mph - N/A   Overcast
2:14 AM 53.6 °F 50.0 °F 88% 30.20 in 10.0 mi NNW 3.5 mph - N/A   Scattered Clouds
2:33 AM 51.8 °F 48.2 °F 88% 30.20 in 10.0 mi North 3.5 mph - N/A   Clear
2:53 AM 51.8 °F 48.2 °F 88% 30.20 in 10.0 mi NNW 4.6 mph - N/A   Clear
3:14 AM 50.0 °F 46.4 °F 87% 30.21 in 10.0 mi NNW 4.6 mph - N/A   Clear
3:33 AM 50.0 °F 46.4 °F 87% 30.21 in 10.0 mi NNW 3.5 mph - N/A   Scattered Clouds
3:53 AM 50.0 °F 46.4 °F 87% 30.21 in 10.0 mi North 3.5 mph - N/A   Scattered Clouds
4:14 AM 50.0 °F 46.4 °F 87% 30.22 in 10.0 mi NNW 3.5 mph - N/A   Scattered Clouds
4:34 AM 50.0 °F 46.4 °F 87% 30.22 in 10.0 mi North 4.6 mph - N/A   Overcast
4:53 AM 51.8 °F 48.2 °F 88% 30.22 in 10.0 mi North 3.5 mph - N/A   Overcast
5:14 AM 51.8 °F 48.2 °F 88% 30.23 in 10.0 mi NNW 4.6 mph - N/A   Mostly Cloudy
5:33 AM 53.6 °F 50.0 °F 88% 30.23 in 10.0 mi NNW 5.8 mph - N/A   Scattered Clouds
5:54 AM 53.6 °F 48.2 °F 82% 30.24 in 10.0 mi NNW 4.6 mph - N/A   Clear
6:13 AM 51.8 °F 48.2 °F 88% 30.25 in 10.0 mi Calm Calm - N/A   Clear
6:34 AM 55.4 °F 50.0 °F 82% 30.26 in 10.0 mi Calm Calm - N/A   Mostly Cloudy
6:53 AM 55.4 °F 50.0 °F 82% 30.26 in 10.0 mi NNW 3.5 mph - N/A   Scattered Clouds
7:13 AM 55.4 °F 51.8 °F 88% 30.26 in 10.0 mi NNW 3.5 mph - N/A   Scattered Clouds
7:34 AM 57.2 °F 51.8 °F 82% 30.26 in 10.0 mi NNW 3.5 mph - N/A   Scattered Clouds
7:53 AM 57.2 °F 51.8 °F 82% 30.26 in 10.0 mi NNW 3.5 mph - N/A   Scattered Clouds
8:14 AM 60.8 °F 51.8 °F 72% 30.26 in 10.0 mi North 6.9 mph - N/A   Clear
8:33 AM 60.8 °F 51.8 °F 72% 30.26 in 10.0 mi NNW 4.6 mph - N/A   Clear
8:54 AM 62.6 °F 51.8 °F 68% 30.26 in 10.0 mi NW 3.5 mph - N/A   Clear
9:13 AM 62.6 °F 51.8 °F 68% 30.26 in 10.0 mi NNW 4.6 mph - N/A   Clear
9:34 AM 66.2 °F 51.8 °F 60% 30.26 in 10.0 mi West 6.9 mph - N/A   Scattered Clouds
9:54 AM 62.6 °F 50.0 °F 63% 30.27 in 10.0 mi WNW 4.6 mph - N/A   Mostly Cloudy
10:13 AM 64.4 °F 48.2 °F 56% 30.27 in 10.0 mi North 6.9 mph - N/A   Scattered Clouds
10:34 AM 64.4 °F 48.2 °F 56% 30.27 in 10.0 mi North 5.8 mph - N/A   Scattered Clouds
10:53 AM 60.8 °F 48.2 °F 63% 30.27 in 10.0 mi NNW 3.5 mph - N/A   Scattered Clouds
11:14 AM 64.4 °F 46.4 °F 52% 30.27 in 10.0 mi NNW 6.9 mph - N/A   Scattered Clouds
11:33 AM 62.6 °F 48.2 °F 59% 30.27 in 10.0 mi NNW 4.6 mph - N/A   Scattered Clouds
11:53 AM 66.2 °F 46.4 °F 49% 30.27 in 10.0 mi ENE 3.5 mph - N/A   Scattered Clouds
12:14 PM 64.4 °F 51.8 °F 64% 30.27 in 10.0 mi SE 3.5 mph - N/A   Scattered Clouds
12:33 PM 62.6 °F 51.8 °F 68% 30.27 in 10.0 mi SSE 3.5 mph - N/A   Scattered Clouds
12:54 PM 64.4 °F 51.8 °F 64% 30.27 in 10.0 mi SSE 3.5 mph - N/A   Scattered Clouds
1:13 PM 66.2 °F 53.6 °F 64% 30.26 in 10.0 mi SW 4.6 mph - N/A   Scattered Clouds
1:33 PM 66.2 °F 53.6 °F 64% 30.26 in 10.0 mi South 8.1 mph - N/A   Scattered Clouds
1:54 PM 62.6 °F 53.6 °F 72% 30.26 in 10.0 mi ESE 5.8 mph - N/A   Mostly Cloudy
2:13 PM 62.6 °F 53.6 °F 72% 30.26 in 10.0 mi ESE 3.5 mph - N/A   Mostly Cloudy
2:33 PM 64.4 °F 53.6 °F 68% 30.26 in 10.0 mi South 6.9 mph - N/A   Scattered Clouds
2:54 PM 62.6 °F 53.6 °F 72% 30.26 in 10.0 mi SE 3.5 mph - N/A   Mostly Cloudy
3:13 PM 64.4 °F 53.6 °F 68% 30.25 in 10.0 mi SSE 5.8 mph - N/A   Mostly Cloudy
3:34 PM 64.4 °F 53.6 °F 68% 30.25 in 10.0 mi SSE 4.6 mph - N/A   Scattered Clouds
3:54 PM 64.4 °F 53.6 °F 68% 30.25 in 10.0 mi SE 3.5 mph - N/A   Scattered Clouds
4:13 PM 64.4 °F 53.6 °F 68% 30.24 in 10.0 mi SSE 5.8 mph - N/A   Scattered Clouds
4:34 PM 64.4 °F 51.8 °F 64% 30.24 in 10.0 mi South 5.8 mph - N/A   Scattered Clouds
4:53 PM 66.2 °F 46.4 °F 49% 30.24 in 10.0 mi West 4.6 mph - N/A   Scattered Clouds
5:13 PM 66.2 °F 48.2 °F 52% 30.24 in 10.0 mi NNW 4.6 mph - N/A   Mostly Cloudy
5:34 PM 66.2 °F 46.4 °F 49% 30.23 in 10.0 mi NNW 5.8 mph - N/A   Mostly Cloudy
5:53 PM 62.6 °F 46.4 °F 55% 30.23 in 10.0 mi NNW 3.5 mph - N/A   Scattered Clouds
6:13 PM 66.2 °F 46.4 °F 49% 30.23 in 10.0 mi NW 4.6 mph - N/A   Scattered Clouds
6:34 PM 64.4 °F 44.6 °F 49% 30.23 in 10.0 mi North 6.9 mph - N/A   Scattered Clouds
6:53 PM 64.4 °F 46.4 °F 52% 30.23 in 10.0 mi NNW 5.8 mph - N/A   Mostly Cloudy
7:13 PM 62.6 °F 46.4 °F 55% 30.23 in 10.0 mi NNW 4.6 mph - N/A   Scattered Clouds
7:34 PM 62.6 °F 46.4 °F 55% 30.22 in 10.0 mi NNW 3.5 mph - N/A   Clear
7:53 PM 60.8 °F 46.4 °F 59% 30.22 in 10.0 mi North 4.6 mph - N/A   Clear
8:13 PM 57.2 °F 48.2 °F 72% 30.22 in 10.0 mi North 3.5 mph - N/A   Scattered Clouds
8:34 PM 57.2 °F 46.4 °F 67% 30.22 in 10.0 mi Calm Calm - N/A   Scattered Clouds
8:54 PM 55.4 °F 48.2 °F 77% 30.22 in 10.0 mi Calm Calm - N/A   Clear
9:13 PM 51.8 °F 48.2 °F 88% 30.22 in 10.0 mi NNW 3.5 mph - N/A   Clear
9:34 PM 51.8 °F 46.4 °F 82% 30.22 in 10.0 mi NNW 3.5 mph - N/A   Clear
9:54 PM 51.8 °F 46.4 °F 82% 30.22 in 10.0 mi NNW 3.5 mph - N/A   Clear
10:13 PM 48.2 °F 44.6 °F 87% 30.21 in 10.0 mi North 3.5 mph - N/A   Clear
10:34 PM 48.2 °F 44.6 °F 87% 30.22 in 10.0 mi NW 3.5 mph - N/A   Clear
10:53 PM 48.2 °F 46.4 °F 93% 30.21 in 10.0 mi NW 3.5 mph - N/A   Clear
11:13 PM 48.2 °F 44.6 °F 87% 30.21 in 10.0 mi Calm Calm - N/A   Clear
11:34 PM 46.4 °F 44.6 °F 93% 30.21 in 10.0 mi Calm Calm - N/A   Clear
11:53 PM 46.4 °F 42.8 °F 87% 30.21 in 10.0 mi Calm Calm - N/A   Clear